When you browse on this site, cookies collect data to enhance your experience and personalize the content and advertising you see.
Visit our Privacy Policy to learn more. By continuing to use the site, you agree to this use of cookies and data.
  • En España
  • Lista de países
  • Para 7 días
  • Temperatura del agua
  • Mapa Satelital
  • El tiempo en el mapa
  • Informadores
  • user-avatar
    Iniciar sesión

    Tiempo cada hora Traktovaya

    Hoy, 15 Diciembre, Sábado

    Tiempo Temperatura Precipitaciones Viento Presión Humedad
    00:00 -12°C° 0 mm 1 mps 756 mmHg 96%
    01:00 -12°C° 0 mm 1 mps 756 mmHg 96%
    02:00 -12°C° 0 mm 1 mps 756 mmHg 96%
    03:00 -13°C° 0 mm 1 mps 756 mmHg 96%
    04:00 -13°C° 0 mm 1 mps 756 mmHg 95%
    05:00 -13°C° 0 mm 1 mps 756 mmHg 95%
    06:00 -13°C° 0 mm 1 mps 755 mmHg 96%
    07:00 -13°C° 0 mm 1 mps 755 mmHg 96%
    08:00 -13°C° 0 mm 1 mps 755 mmHg 96%
    09:00 -13°C° 0 mm 1 mps 755 mmHg 96%
    10:00 -13°C° 0 mm 1 mps 755 mmHg 95%
    11:00 -14°C° 0 mm 2 mps 755 mmHg 93%
    12:00 -13°C° 0 mm 2 mps 755 mmHg 91%
    13:00 -12°C° 0 mm 2 mps 755 mmHg 88%
    14:00 -12°C° 0 mm 2 mps 755 mmHg 90%
    15:00 -13°C° 0 mm 2 mps 755 mmHg 92%
    16:00 -13°C° 0 mm 2 mps 755 mmHg 93%
    17:00 -14°C° 0 mm 2 mps 755 mmHg 94%
    18:00 -14°C° 0 mm 2 mps 755 mmHg 95%
    19:00 -14°C° 0 mm 2 mps 755 mmHg 96%
    20:00 -14°C° 0 mm 2 mps 755 mmHg 96%
    21:00 -14°C° 0 mm 2 mps 755 mmHg 95%
    22:00 -14°C° 0 mm 2 mps 755 mmHg 95%
    23:00 -14°C° 0 mm 2 mps 756 mmHg 95%

    Mañana, 16 Diciembre, Domingo

    Tiempo Temperatura Precipitaciones Viento Presión Humedad
    00:00 -13°C° 0 mm 2 mps 756 mmHg 95%
    01:00 -13°C° 0 mm 2 mps 756 mmHg 95%
    02:00 -13°C° 0 mm 2 mps 756 mmHg 95%
    03:00 -13°C° 0 mm 2 mps 756 mmHg 95%
    04:00 -13°C° 0 mm 2 mps 756 mmHg 95%
    05:00 -12°C° 0 mm 2 mps 756 mmHg 95%
    06:00 -12°C° 0 mm 2 mps 756 mmHg 95%
    07:00 -10°C° 0 mm 2 mps 756 mmHg 95%
    08:00 -10°C° 0 mm 2 mps 756 mmHg 95%
    09:00 -9°C° 0 mm 2 mps 757 mmHg 95%
    10:00 -9°C° 0 mm 2 mps 757 mmHg 95%
    11:00 -8°C° 0 mm 2 mps 757 mmHg 94%
    12:00 -7°C° 0 mm 2 mps 757 mmHg 93%
    13:00 -7°C° 0 mm 2 mps 757 mmHg 92%
    14:00 -7°C° 0 mm 2 mps 757 mmHg 93%
    15:00 -6°C° 0 mm 1 mps 758 mmHg 95%
    16:00 -6°C° 0 mm 1 mps 758 mmHg 96%
    17:00 -6°C° 0 mm 1 mps 758 mmHg 96%
    18:00 -6°C° 0 mm 1 mps 758 mmHg 97%
    19:00 -7°C° 0 mm 1 mps 758 mmHg 97%
    20:00 -6°C° 0 mm 1 mps 758 mmHg 97%
    21:00 -6°C° 0 mm 1 mps 758 mmHg 97%
    22:00 -6°C° 0 mm 1 mps 758 mmHg 97%
    23:00 -4°C° 0 mm 1 mps 758 mmHg 97%

    Pasado mañana, 17 Diciembre, Lunes

    Tiempo Temperatura Precipitaciones Viento Presión Humedad
    00:00 -4°C° 0 mm 1 mps 759 mmHg 97%
    01:00 -4°C° 0 mm 1 mps 759 mmHg 97%
    02:00 -4°C° 0 mm 1 mps 759 mmHg 97%
    03:00 -4°C° 0 mm 1 mps 759 mmHg 98%
    04:00 -3°C° 0 mm 1 mps 759 mmHg 98%
    05:00 -4°C° 0 mm 1 mps 759 mmHg 98%
    06:00 -4°C° 0 mm 1 mps 759 mmHg 98%
    07:00 -4°C° 0 mm 1 mps 759 mmHg 98%
    08:00 -4°C° 0 mm 1 mps 759 mmHg 98%
    09:00 -3°C° 0 mm 1 mps 759 mmHg 98%
    10:00 -3°C° 0 mm 1 mps 759 mmHg 98%
    11:00 -3°C° 0 mm 1 mps 759 mmHg 97%
    12:00 -2°C° 0 mm 1 mps 759 mmHg 96%
    13:00 -2°C° 0 mm 1 mps 759 mmHg 96%
    14:00 -2°C° 0 mm 1 mps 759 mmHg 96%
    15:00 -2°C° 0 mm 1 mps 759 mmHg 97%
    16:00 -2°C° 0 mm 1 mps 759 mmHg 98%
    17:00 -5°C° 0 mm 2 mps 759 mmHg 97%
    18:00 -5°C° 0 mm 2 mps 759 mmHg 97%
    19:00 -5°C° 0 mm 2 mps 759 mmHg 97%
    20:00 -5°C° 0 mm 2 mps 759 mmHg 96%
    21:00 -6°C° 0 mm 2 mps 759 mmHg 95%
    22:00 -6°C° 0 mm 2 mps 759 mmHg 94%
    23:00 -7°C° 0 mm 2 mps 759 mmHg 94%

    18 Diciembre, Martes

    Tiempo Temperatura Precipitaciones Viento Presión Humedad
    00:00 -8°C° 0 mm 2 mps 759 mmHg 94%
    01:00 -8°C° 0 mm 2 mps 759 mmHg 94%
    02:00 -10°C° 0 mm 3 mps 759 mmHg 94%
    03:00 -10°C° 0 mm 3 mps 759 mmHg 94%
    04:00 -12°C° 0 mm 3 mps 758 mmHg 94%
    05:00 -12°C° 0 mm 3 mps 758 mmHg 94%
    06:00 -13°C° 0 mm 3 mps 758 mmHg 94%
    07:00 -13°C° 0 mm 3 mps 758 mmHg 94%
    08:00 -13°C° 0 mm 3 mps 758 mmHg 94%
    09:00 -14°C° 0 mm 3 mps 758 mmHg 94%
    10:00 -14°C° 0 mm 3 mps 759 mmHg 94%
    11:00 -14°C° 0 mm 3 mps 759 mmHg 93%
    12:00 -14°C° 0 mm 3 mps 758 mmHg 92%
    13:00 -14°C° 0 mm 3 mps 758 mmHg 91%
    14:00 -14°C° 0 mm 3 mps 759 mmHg 92%
    15:00 -15°C° 0 mm 3 mps 759 mmHg 92%
    16:00 -14°C° 0 mm 2 mps 759 mmHg 93%
    17:00 -15°C° 0 mm 2 mps 759 mmHg 93%
    18:00 -15°C° 0 mm 2 mps 759 mmHg 94%
    19:00 -16°C° 0 mm 2 mps 759 mmHg 94%
    20:00 -15°C° 0 mm 2 mps 759 mmHg 94%
    21:00 -15°C° 0 mm 2 mps 759 mmHg 95%
    22:00 -15°C° 0 mm 2 mps 759 mmHg 95%
    23:00 -15°C° 0 mm 2 mps 760 mmHg 95%

    19 Diciembre, Miércoles

    Tiempo Temperatura Precipitaciones Viento Presión Humedad
    00:00 -14°C° 0 mm 2 mps 760 mmHg 95%
    01:00 -14°C° 0 mm 2 mps 760 mmHg 94%
    02:00 -13°C° 0 mm 2 mps 760 mmHg 94%
    03:00 -13°C° 0 mm 2 mps 760 mmHg 95%
    04:00 -12°C° 0 mm 2 mps 760 mmHg 95%
    05:00 -12°C° 0 mm 2 mps 761 mmHg 95%
    06:00 -12°C° 0 mm 2 mps 761 mmHg 96%
    07:00 -12°C° 0 mm 2 mps 761 mmHg 96%
    08:00 -12°C° 0 mm 2 mps 761 mmHg 96%
    09:00 -9°C° 0 mm 1 mps 762 mmHg 96%
    10:00 -9°C° 0 mm 1 mps 762 mmHg 95%
    11:00 -9°C° 0 mm 1 mps 762 mmHg 94%
    12:00 -8°C° 0 mm 1 mps 763 mmHg 94%
    13:00 -8°C° 0 mm 1 mps 763 mmHg 93%
    14:00 -9°C° 0 mm 1 mps 763 mmHg 93%
    15:00 -9°C° 0 mm 1 mps 764 mmHg 94%
    16:00 -10°C° 0 mm 1 mps 764 mmHg 95%
    17:00 -10°C° 0 mm 1 mps 764 mmHg 95%
    18:00 -11°C° 0 mm 1 mps 765 mmHg 95%
    19:00 -11°C° 0 mm 0 mps 765 mmHg 95%
    20:00 -12°C° 0 mm 0 mps 765 mmHg 95%
    21:00 -12°C° 0 mm 0 mps 766 mmHg 95%
    22:00 -12°C° 0 mm 0 mps 766 mmHg 95%
    23:00 -13°C° 0 mm 0 mps 766 mmHg 96%

    20 Diciembre, Jueves

    Tiempo Temperatura Precipitaciones Viento Presión Humedad
    00:00 -13°C° 0 mm 0 mps 766 mmHg 96%
    01:00 -13°C° 0 mm 0 mps 766 mmHg 96%
    02:00 -13°C° 0 mm 0 mps 766 mmHg 96%
    03:00 -13°C° 0 mm 0 mps 766 mmHg 96%
    04:00 -13°C° 0 mm 0 mps 766 mmHg 97%
    05:00 -13°C° 0 mm 0 mps 766 mmHg 97%
    06:00 -13°C° 0 mm 0 mps 766 mmHg 97%
    07:00 -12°C° 0 mm 0 mps 767 mmHg 97%
    08:00 -12°C° 0 mm 0 mps 767 mmHg 96%
    09:00 -12°C° 0 mm 0 mps 767 mmHg 96%
    10:00 -11°C° 0 mm 0 mps 767 mmHg 96%
    11:00 -11°C° 0 mm 0 mps 767 mmHg 95%
    12:00 -10°C° 0 mm 0 mps 767 mmHg 95%
    13:00 -9°C° 0 mm 0 mps 767 mmHg 94%
    14:00 -10°C° 0 mm 0 mps 767 mmHg 95%
    15:00 -10°C° 0 mm 0 mps 767 mmHg 96%
    16:00 -11°C° 0 mm 0 mps 767 mmHg 97%
    17:00 -11°C° 0 mm 0 mps 767 mmHg 97%
    18:00 -11°C° 0 mm 0 mps 766 mmHg 97%
    19:00 -10°C° 0 mm 1 mps 766 mmHg 97%
    20:00 -10°C° 0 mm 1 mps 766 mmHg 97%
    21:00 -10°C° 0 mm 1 mps 766 mmHg 97%
    22:00 -10°C° 0 mm 1 mps 766 mmHg 97%
    23:00 -10°C° 0 mm 1 mps 766 mmHg 97%
    Mostrar más